Theta_e
324 332 347 347 347 348 349 347 347 347 348 348 348 348 347 346 346 347 347 347 348 349 349 347 346 346 347 347 346 346 346 345 344 342 343 344 349 345 346 350 349 348 352
328 333 345 347 347 347 347 347 347 348 347 346 345 345 345 344 342 341 343 342 345 346 346 344 342 342 342 344 345 345 344 342 342 342 341 339 344 353 351 351 351 350 352
330 334 339 345 346 347 347 347 347 347 345 344 343 343 343 341 339 338 337 339 340 341 342 340 338 337 337 337 338 339 337 337 337 337 338 332 333 350 348 350 350 349 350
329 331 334 342 345 345 346 346 346 346 344 343 341 339 338 336 336 335 334 334 336 337 338 335 332 331 330 331 332 332 331 329 328 327 326 330 332 341 347 347 347 345 346
324 327 331 340 342 342 341 341 341 340 338 339 336 337 335 334 332 329 328 327 331 331 328 326 325 323 323 323 323 323 321 321 317 310 310 317 323 336 345 345 344 344 345
320 323 331 338 340 339 339 340 338 338 336 335 334 333 332 329 326 324 324 324 325 324 323 322 320 320 320 319 318 318 319 317 312 305 306 313 320 341 343 344 344 345 344
317 320 326 337 338 337 337 338 337 336 335 333 331 329 327 324 323 322 321 321 321 321 320 319 319 319 319 319 317 317 316 312 301 302 305 311 315 334 340 344 343 343 343
315 318 322 330 333 334 335 335 335 333 331 328 326 324 323 321 321 320 319 319 319 319 319 318 318 317 317 315 314 313 312 309 300 299 300 306 321 329 332 335 336 339 342
314 315 316 320 324 329 331 331 332 329 327 324 322 321 320 319 318 318 317 318 318 318 318 316 314 313 313 313 312 310 309 308 296 298 301 305 317 323 326 327 328 329 333
309 311 311 313 316 316 318 325 326 326 324 321 321 319 318 315 315 315 317 317 316 316 315 312 311 309 310 309 308 306 305 303 296 296 298 304 315 320 322 322 323 324 325
307 307 307 308 309 309 310 315 320 322 322 320 318 317 312 301 303 304 312 314 313 312 312 309 307 305 303 304 304 303 300 294 294 294 296 308 312 316 318 319 320 321 322
303 304 305 304 304 304 308 308 307 308 307 305 304 302 297 296 298 302 307 309 308 307 308 306 303 301 296 292 292 296 292 292 292 293 294 305 309 313 315 317 319 319 320
305 304 304 303 301 301 302 302 301 300 299 298 298 296 294 296 297 295 294 292 291 295 290 292 291 290 290 290 290 290 290 290 290 291 295 302 306 309 312 314 316 318 319
299 302 302 302 300 298 298 300 298 297 295 295 294 295 293 293 291 290 290 289 288 288 288 288 288 289 289 290 290 289 289 289 289 290 292 299 303 307 310 312 313 315 318
297 299 300 300 300 298 296 297 296 295 296 294 293 294 293 291 290 289 289 288 287 287 287 287 287 287 288 289 289 288 288 289 289 290 289 297 301 305 308 311 313 314 315
295 296 298 299 299 298 296 297 296 295 294 293 292 293 292 291 289 289 288 287 286 286 286 286 286 286 286 287 287 288 288 288 289 288 289 289 299 302 306 310 312 314 315
296 295 295 297 298 297 295 295 295 294 295 293 292 292 292 290 289 288 287 286 286 286 286 286 286 285 285 286 286 287 287 288 288 288 288 289 291 298 303 308 310 311 312
296 294 295 297 296 296 296 295 294 294 294 293 291 290 291 290 289 287 286 286 286 285 285 285 284 284 284 284 284 285 285 287 287 287 288 289 289 292 296 306 306 307 309
297 296 294 295 295 295 295 294 294 293 293 293 290 289 289 289 288 287 286 285 285 285 284 285 283 283 282 283 284 284 284 284 285 287 287 287 288 289 292 297 298 300 305
297 297 295 295 295 295 295 293 291 291 292 291 290 289 288 288 287 286 285 285 285 284 284 283 283 283 283 282 284 284 283 284 285 285 285 286 287 288 288 288 289 291 297
294 295 295 293 294 294 292 290 291 291 290 290 290 289 288 287 287 285 284 284 284 283 283 283 283 282 282 281 281 281 282 284 284 283 283 284 285 286 286 287 288 288 287
295 295 294 294 293 294 294 294 292 293 289 291 289 288 287 287 286 285 284 283 283 282 282 282 282 281 281 281 279 280 278 281 283 283 283 284 283 284 285 285 285 286 286
292 293 294 294 293 294 294 292 286 285 284 284 285 287 287 286 286 285 284 283 283 282 281 281 281 281 280 280 280 279 277 277 278 281 281 282 282 283 282 283 284 285 286
293 292 293 293 292 293 293 291 290 290 288 288 289 288 287 286 285 284 284 283 282 282 281 281 281 280 280 279 280 282 280 280 277 276 279 280 281 281 281 282 282 284 285
291 290 291 291 291 292 292 291 291 290 291 287 285 284 285 284 284 284 283 282 281 281 281 281 280 280 280 279 279 279 279 278 278 277 276 278 279 280 281 281 282 282 283
288 288 289 290 290 291 291 290 290 290 286 285 284 285 285 284 283 283 283 281 281 281 280 280 280 280 280 279 279 279 279 277 277 276 276 276 276 278 280 281 281 281 282
Wind_Speed
6 7 9 12 13 12 13 12 12 12 13 12 12 12 12 10 10 11 9 7 7 9 11 12 11 11 11 10 9 10 10 11 11 12 12 12 11 4 4 6 7 5 7
10 7 10 12 14 14 12 13 13 14 13 12 11 10 11 11 10 8 9 8 10 12 11 11 12 12 10 11 12 12 12 12 13 14 12 11 11 11 7 9 8 7 10
10 7 8 12 12 14 14 14 13 13 12 10 10 11 10 10 10 9 8 8 9 10 11 11 11 10 10 10 12 13 12 12 13 14 12 6 7 10 9 8 8 9 9
8 6 6 11 13 12 14 14 13 14 14 12 10 8 9 8 9 9 9 8 7 8 10 10 9 9 9 9 10 10 12 12 13 13 6 7 8 13 9 8 9 9 9
7 6 6 10 14 14 13 12 12 11 11 11 10 10 10 10 10 9 9 8 9 10 10 10 9 9 10 10 10 11 12 13 13 9 6 6 5 9 12 4 6 7 8
7 6 8 12 14 13 13 14 13 13 12 12 12 12 13 12 11 10 10 9 10 10 9 10 9 10 11 11 12 12 13 14 12 7 6 7 6 12 10 7 2 5 7
7 6 6 11 13 13 14 14 14 15 14 15 15 14 13 12 12 12 11 11 11 10 10 10 10 11 12 12 12 12 14 15 7 7 6 7 7 13 12 17 5 5 7
9 7 6 9 11 12 14 14 15 15 15 14 13 12 13 12 12 12 11 12 11 11 11 11 11 11 11 11 12 13 14 14 8 6 6 5 14 13 12 14 15 16 13
6 7 6 6 7 10 11 13 14 16 16 15 14 13 12 12 12 12 11 12 12 11 11 11 11 11 12 11 12 12 13 14 6 5 7 4 13 12 13 14 15 14 15
6 6 6 5 6 5 5 10 11 13 13 14 14 13 12 11 11 12 9 11 11 11 11 11 11 11 12 11 12 12 12 12 6 5 4 5 13 12 12 12 12 12 13
6 7 7 7 6 6 4 5 8 10 11 12 10 11 9 4 5 7 7 12 12 11 11 11 11 11 10 10 11 11 10 3 5 4 3 13 13 12 11 11 11 11 12
11 9 7 7 7 6 4 5 5 5 4 4 5 6 4 4 4 5 7 11 11 11 11 11 10 9 7 4 4 8 3 5 4 4 3 13 13 12 11 11 11 11 11
12 8 11 9 7 8 5 4 3 3 3 3 6 5 5 4 3 3 3 3 4 7 3 5 4 3 4 3 3 3 4 4 3 3 5 12 12 11 10 10 10 11 11
14 14 11 10 10 8 5 5 5 4 4 4 5 7 5 3 4 4 3 4 4 3 5 3 2 3 4 4 4 3 4 3 2 3 5 11 12 12 10 9 8 7 9
14 14 15 14 13 11 9 6 6 6 6 5 5 6 5 5 5 4 4 3 3 3 3 3 3 3 4 4 4 4 4 4 5 2 2 10 10 11 10 9 9 9 9
15 17 15 16 15 13 12 11 9 7 7 6 5 6 7 5 5 4 4 4 3 3 3 4 3 2 3 2 3 4 5 4 4 5 3 5 11 10 10 10 10 11 11
17 12 18 18 16 16 16 12 9 9 8 7 7 7 7 7 6 6 5 4 4 4 5 4 3 2 3 3 4 4 4 5 5 5 4 4 5 9 10 11 11 10 10
13 18 17 16 18 17 16 12 9 8 8 7 6 6 8 8 8 6 5 5 4 4 4 4 2 2 2 3 4 4 4 3 4 4 4 4 4 4 8 13 15 15 13
19 17 17 19 20 20 15 11 10 10 9 7 6 7 8 8 8 7 5 5 5 4 3 3 2 2 2 3 3 4 4 4 4 4 5 6 6 5 4 12 15 15 16
16 17 16 16 17 17 11 8 5 6 6 6 8 8 10 8 8 7 5 6 5 4 4 2 3 2 2 1 2 3 3 3 3 3 5 4 6 6 6 6 6 7 16
11 15 17 18 17 15 11 11 9 12 9 7 7 10 10 8 9 8 5 6 5 5 5 5 3 3 3 3 2 2 3 4 4 4 4 3 5 5 6 5 4 3 5
16 16 16 18 17 17 13 12 6 10 5 7 6 7 10 10 9 8 8 7 6 5 6 5 4 3 2 4 3 1 4 3 3 4 3 4 4 3 4 6 5 5 5
12 17 19 20 20 19 16 9 4 6 4 3 5 6 8 10 10 8 8 7 7 5 6 5 5 6 4 1 3 3 2 2 2 2 1 2 5 4 4 5 6 6 5
15 9 12 15 17 16 17 15 16 11 10 8 10 8 8 10 10 8 8 7 7 4 5 4 4 3 5 5 2 3 4 3 2 4 3 2 2 3 3 3 4 4 4
8 11 11 12 14 15 17 16 15 13 10 6 5 11 10 9 10 11 11 9 7 4 5 6 5 5 2 4 4 4 2 2 2 3 4 3 4 2 3 3 4 3 2
6 8 11 15 15 15 16 17 19 18 9 8 9 10 9 8 8 10 11 10 9 8 7 6 5 7 5 3 3 4 4 4 4 4 2 2 3 3 5 4 3 3 2
Wind_Direction
218 187 177 161 171 168 160 160 158 156 146 135 130 126 117 110 101 93 85 73 94 103 89 79 66 56 52 52 50 47 40 26 16 14 11 4 6 343 337 78 58 38 40
144 175 175 163 168 167 166 168 168 151 144 147 142 127 122 118 115 115 91 68 70 72 78 70 57 42 38 38 38 40 32 23 9 6 7 9 6 31 62 64 49 43 31
151 166 160 167 158 157 154 153 153 151 145 135 124 122 108 105 102 103 98 60 62 72 69 71 63 52 40 37 31 28 23 20 14 11 7 6 351 9 45 52 46 42 35
152 154 156 162 167 161 155 151 150 149 142 134 117 117 109 114 106 100 103 97 98 89 79 72 61 55 50 40 35 31 21 21 17 14 4 5 1 0 11 33 34 27 21
151 153 160 168 177 168 162 159 157 151 156 134 131 150 141 129 119 112 103 96 95 91 88 78 65 55 48 42 38 29 24 18 16 11 5 359 360 354 353 30 30 29 21
152 152 169 177 185 180 176 164 160 155 166 157 158 143 139 136 131 123 110 104 97 90 83 77 71 66 60 53 43 34 33 32 27 12 10 4 360 4 8 357 59 45 31
156 161 165 181 179 178 176 170 169 167 161 163 154 151 146 142 136 131 124 116 107 99 92 86 79 72 67 57 45 44 38 35 28 14 19 13 347 10 15 19 23 39 29
156 162 167 174 173 176 174 170 170 160 162 160 155 155 147 144 141 134 127 121 112 108 100 93 84 76 72 61 54 44 40 41 31 20 19 6 9 16 17 14 18 12 13
153 157 168 165 171 177 173 172 170 168 167 164 161 158 151 143 140 128 123 122 113 108 102 93 87 80 73 64 56 49 40 38 37 23 15 347 3 9 13 15 11 1 1
168 175 174 169 166 169 169 171 174 168 168 166 163 153 146 144 141 131 119 119 111 106 100 91 81 76 74 67 59 50 44 36 29 19 10 357 7 10 9 9 4 1 2
202 191 181 176 172 165 166 173 168 165 168 164 151 148 127 120 124 114 130 121 116 109 100 88 81 74 71 61 57 51 47 37 30 15 1 9 6 4 4 3 3 3 3
205 202 187 178 176 167 163 163 151 152 148 142 135 128 126 132 134 122 111 118 111 107 104 99 90 77 65 49 37 40 34 29 28 13 360 9 1 358 1 359 356 1 1
201 197 196 185 175 168 172 161 155 148 148 152 160 152 150 148 126 119 110 122 119 108 88 85 76 73 75 68 49 33 35 35 13 14 1 4 358 354 354 359 2 354 359
192 197 190 186 181 181 164 175 168 164 167 176 178 163 153 154 157 156 150 147 134 135 118 115 104 98 74 75 65 46 23 36 13 3 356 358 359 357 358 0 1 1 6
203 196 195 184 188 185 180 173 174 181 182 179 178 173 159 164 169 163 165 158 141 136 130 117 102 77 52 42 36 27 27 16 10 4 347 1 9 10 5 8 20 17 19
203 203 188 192 190 181 189 187 187 180 181 178 178 180 172 166 167 164 167 165 156 144 134 127 119 102 73 43 19 7 4 16 10 10 359 353 7 13 16 19 25 26 26
211 194 193 191 187 187 190 186 184 185 179 184 184 180 173 170 171 164 167 171 173 157 131 118 94 68 44 7 12 356 360 3 14 14 5 358 355 9 15 24 33 30 33
200 197 191 191 190 189 190 185 184 182 183 185 180 172 175 174 169 167 165 188 166 151 139 118 103 82 46 18 348 343 351 8 18 23 22 22 2 22 21 47 43 32 27
202 197 194 192 191 191 187 181 181 178 184 183 171 178 181 176 173 168 171 175 162 146 143 144 94 127 53 354 334 334 355 7 15 27 44 22 30 30 41 31 25 26 27
200 198 196 192 191 185 176 167 155 171 184 174 186 187 179 181 170 161 169 167 156 150 153 144 138 84 115 342 324 347 11 25 64 65 30 31 26 41 32 30 24 17 11
190 192 192 185 186 174 175 173 182 193 190 191 187 181 180 175 173 167 168 160 165 170 170 160 134 118 29 359 31 13 10 43 87 40 73 58 64 35 34 32 13 0 355
198 197 190 191 182 187 184 189 187 182 187 192 177 178 181 176 172 170 171 175 173 157 167 167 147 119 80 11 106 83 14 346 17 35 30 67 36 20 27 5 355 357 359
197 192 192 188 183 184 180 158 87 86 67 123 183 186 188 177 174 171 173 169 173 171 177 168 159 151 142 13 36 134 110 221 323 337 21 42 50 30 355 345 343 342 347
218 192 189 185 180 182 172 170 177 187 185 195 193 190 182 177 176 169 168 168 174 177 178 167 165 152 132 152 84 51 49 102 164 323 344 334 13 344 333 315 310 308 328
180 173 171 173 179 182 181 183 184 188 189 161 158 164 176 179 178 176 173 167 169 176 170 168 159 156 159 144 152 157 124 98 110 147 272 313 320 254 306 266 269 272 281
166 160 164 169 177 181 184 188 194 194 170 160 163 174 181 183 184 184 176 172 165 168 174 175 165 167 175 176 163 160 160 161 170 153 227 285 229 252 278 264 275 285 317